User: anonymous   Login
Location: Kapla
(46.2483°N, 15.0094°E)
Time: 00:34:24
(UTC+00:00)
Language:

Cosmos 1666 - Orbit

View from above orbital plane
View from above orbital plane
View from above satellite
View from above satellite

Ground track
Ground track

The orbit data is extracted from the following two-line orbital elements,

1 15889U 85058A   21127.43787087  .00000707  00000-0  31653-4 0  9990
2 15889  82.4903  24.7401 0017245 154.3417 205.8677 15.19448324957402
Epoch (UTC): 07 May 2021 10:30:32
Eccentricity: 0.0017245
inclination: 82.4903°
perigee height: 495 km
apogee height: 519 km
right ascension of ascending node: 24.7401°
argument of perigee: 154.3417°
revolutions per day: 15.19448324
mean anomaly at epoch: 205.8677°
orbit number at epoch: 95740

The dashed part of the orbit path shows where the satellite is in the earth's shadow,  

DLR